Weather History for Monett, MO

Change the Weather History Date:

Wednesday, November 28, 2012

  Actual Average (KJLN) Record (KJLN)
Temperature  
Mean Temperature 42 °F 43 °F  
Max Temperature 53 °F 53 °F 72 °F (1949)
Min Temperature 30 °F 33 °F 10 °F (1976)
Degree Days  
Heating Degree Days 24 22  
Month to date heating degree days 459  
Since 1 July heating degree days 711  
Cooling Degree Days 0 0  
Month to date cooling degree days 5  
Year to date cooling degree days 1696  
Moisture  
Dew Point 28 °F    
Average Humidity 64    
Maximum Humidity 81    
Minimum Humidity 41    
Precipitation  
Precipitation 0.00 in 0.11 in 1.55 in (1997)
Month to date precipitation 3.54  
Year to date precipitation 43.49  
Sea Level Pressure  
Sea Level Pressure 30.33 in    
Wind  
Wind Speed 5 mph (SSE)    
Max Wind Speed 9 mph    
Max Gust Speed -    
Visibility 10 miles    
Events      
T = Trace of Precipitation, MM = Missing Value Source: NWS Daily Summary

Daily Weather History Graph

Daily Weather History Graph

Search for Another Location

Airport:

Trip Planner

Search our weather history database for the weather conditions in past years. The results will help you decide how hot, cold, wet, or windy it might be!

Date:

Astronomy

Nov. 28, 2012 Rise Set
Actual Time 7:08 AM CST 5:00 PM CST
Civil Twilight 6:39 AM CST 5:28 PM CST
Nautical Twilight 6:07 AM CST 6:00 PM CST
Astronomical Twilight 5:36 AM CST 6:31 PM CST
Moon 5:15 PM CST (11/28) 7:06 AM CST (11/28)
Length of Visible Light 10h 48m
Length of Day
9h 52m
Full, 100% of the Moon is Illuminated
Nov 28
Full
Dec 6
Last Quarter
Dec 13
New
Dec 19
First Quarter
Dec 28
Full

Hourly Weather History & Observations

Time (CST) Temp. Windchill Dew Point Humidity Pressure Visibility Wind Dir Wind Speed Gust Speed Precip Events Conditions
12:15 AM 30.2 °F 26.7 °F 21.2 °F 69% 30.35 in 10.0 mi SSE 3.5 mph - N/A   Clear
12:35 AM 32.0 °F 28.7 °F 21.2 °F 64% 30.35 in 10.0 mi South 3.5 mph - N/A   Clear
12:55 AM 32.0 °F 28.7 °F 21.2 °F 64% 30.34 in 10.0 mi South 3.5 mph - N/A   Clear
1:15 AM 30.2 °F 25.4 °F 21.2 °F 69% 30.34 in 10.0 mi SSE 4.6 mph - N/A   Clear
1:35 AM 30.2 °F 25.4 °F 21.2 °F 69% 30.35 in 10.0 mi SSE 4.6 mph - N/A   Clear
1:55 AM 32.0 °F - 23.0 °F 69% 30.35 in 10.0 mi Calm Calm - N/A   Clear
2:15 AM 32.0 °F 28.7 °F 23.0 °F 69% 30.35 in 10.0 mi SSE 3.5 mph - N/A   Clear
2:35 AM 32.0 °F 27.5 °F 23.0 °F 69% 30.35 in 10.0 mi SSE 4.6 mph - N/A   Clear
2:55 AM 30.2 °F 26.7 °F 23.0 °F 75% 30.35 in 10.0 mi SSE 3.5 mph - N/A   Clear
3:15 AM 30.2 °F 25.4 °F 23.0 °F 75% 30.35 in 10.0 mi SSE 4.6 mph - N/A   Clear
3:35 AM 30.2 °F 24.3 °F 23.0 °F 75% 30.35 in 10.0 mi South 5.8 mph - N/A   Clear
3:55 AM 32.0 °F 27.5 °F 23.0 °F 69% 30.34 in 10.0 mi South 4.6 mph - N/A   Clear
4:15 AM 32.0 °F 27.5 °F 23.0 °F 69% 30.34 in 10.0 mi South 4.6 mph - N/A   Clear
4:35 AM 32.0 °F 28.7 °F 24.8 °F 75% 30.35 in 10.0 mi South 3.5 mph - N/A   Clear
4:55 AM 32.0 °F 27.5 °F 24.8 °F 75% 30.35 in 10.0 mi South 4.6 mph - N/A   Clear
5:15 AM 32.0 °F 28.7 °F 24.8 °F 75% 30.36 in 10.0 mi South 3.5 mph - N/A   Clear
5:35 AM 32.0 °F 28.7 °F 24.8 °F 75% 30.36 in 10.0 mi South 3.5 mph - N/A   Clear
5:55 AM 32.0 °F 27.5 °F 24.8 °F 75% 30.36 in 10.0 mi SSE 4.6 mph - N/A   Clear
6:15 AM 32.0 °F 27.5 °F 24.8 °F 75% 30.36 in 10.0 mi SSE 4.6 mph - N/A   Clear
6:35 AM 32.0 °F 27.5 °F 24.8 °F 75% 30.37 in 10.0 mi SSE 4.6 mph - N/A   Clear
6:55 AM 32.0 °F 27.5 °F 24.8 °F 75% 30.37 in 10.0 mi SSE 4.6 mph - N/A   Clear
7:15 AM 32.0 °F 27.5 °F 26.6 °F 80% 30.38 in 10.0 mi SSE 4.6 mph - N/A   Clear
7:35 AM 32.0 °F 27.5 °F 26.6 °F 80% 30.39 in 10.0 mi SSE 4.6 mph - N/A   Clear
7:55 AM 32.0 °F 27.5 °F 26.6 °F 80% 30.39 in 10.0 mi SE 4.6 mph - N/A   Clear
8:15 AM 32.0 °F 27.5 °F 26.6 °F 80% 30.39 in 10.0 mi SE 4.6 mph - N/A   Clear
8:35 AM 33.8 °F 30.8 °F 28.4 °F 81% 30.40 in 10.0 mi SSE 3.5 mph - N/A   Clear
8:55 AM 35.6 °F - 30.2 °F 81% 30.40 in 10.0 mi Calm Calm - N/A   Clear
9:15 AM 39.2 °F - 32.0 °F 75% 30.40 in 10.0 mi Calm Calm - N/A   Clear
9:55 AM 44.6 °F 43.1 °F 32.0 °F 61% 30.41 in 10.0 mi SSE 3.5 mph - N/A   Clear
10:15 AM 44.6 °F - 32.0 °F 61% 30.42 in 10.0 mi Calm Calm - N/A   Clear
10:35 AM 46.4 °F - 30.2 °F 53% 30.42 in 10.0 mi Calm Calm - N/A   Clear
10:55 AM 48.2 °F - 30.2 °F 50% 30.42 in 10.0 mi Calm Calm - N/A   Clear
11:15 AM 50.0 °F - 30.2 °F 47% 30.41 in 10.0 mi SE 5.8 mph - N/A   Clear
11:35 AM 50.0 °F - 30.2 °F 47% 30.39 in 10.0 mi East 5.8 mph - N/A   Clear
11:55 AM 50.0 °F - 32.0 °F 50% 30.38 in 10.0 mi SE 6.9 mph - N/A   Clear
12:15 PM 50.0 °F - 30.2 °F 47% 30.36 in 10.0 mi SE 4.6 mph - N/A   Clear
12:35 PM 51.8 °F - 30.2 °F 44% 30.35 in 10.0 mi SSE 9.2 mph - N/A   Clear
12:55 PM 51.8 °F - 30.2 °F 44% 30.34 in 10.0 mi South 6.9 mph - N/A   Clear
1:15 PM 51.8 °F - 32.0 °F 47% 30.34 in 10.0 mi SSE 4.6 mph - N/A   Clear
1:35 PM 51.8 °F - 32.0 °F 47% 30.32 in 10.0 mi SSE 8.1 mph - N/A   Clear
1:55 PM 53.6 °F - 32.0 °F 44% 30.32 in 10.0 mi SSE 6.9 mph - N/A   Clear
2:15 PM 51.8 °F - 32.0 °F 47% 30.31 in 10.0 mi SE 5.8 mph - N/A   Clear
2:35 PM 53.6 °F - 32.0 °F 44% 30.30 in 10.0 mi SSE 8.1 mph - N/A   Clear
2:55 PM 53.6 °F - 32.0 °F 44% 30.29 in 10.0 mi SE 4.6 mph - N/A   Clear
3:15 PM 53.6 °F - 32.0 °F 44% 30.29 in 10.0 mi SSE 6.9 mph - N/A   Clear
3:35 PM 53.6 °F - 30.2 °F 41% 30.29 in 10.0 mi SSE 6.9 mph - N/A   Clear
3:55 PM 51.8 °F - 30.2 °F 44% 30.28 in 10.0 mi SSE 5.8 mph - N/A   Clear
4:15 PM 50.0 °F - 32.0 °F 50% 30.28 in 10.0 mi SSE 4.6 mph - N/A   Clear
4:35 PM 50.0 °F - 32.0 °F 50% 30.27 in 10.0 mi SSE 4.6 mph - N/A   Clear
4:55 PM 48.2 °F - 32.0 °F 54% 30.27 in 10.0 mi SSE 4.6 mph - N/A   Clear
5:15 PM 46.4 °F 43.5 °F 32.0 °F 57% 30.27 in 10.0 mi SSE 5.8 mph - N/A   Clear
5:35 PM 44.6 °F 41.4 °F 30.2 °F 57% 30.27 in 10.0 mi SE 5.8 mph - N/A   Clear
5:55 PM 44.6 °F 41.4 °F 30.2 °F 57% 30.27 in 10.0 mi SSE 5.8 mph - N/A   Clear
6:35 PM 42.8 °F 38.6 °F 30.2 °F 61% 30.27 in 10.0 mi SE 6.9 mph - N/A   Clear
6:55 PM 42.8 °F 38.6 °F 30.2 °F 61% 30.27 in 10.0 mi SE 6.9 mph - N/A   Clear
7:35 PM 41.0 °F 36.4 °F 30.2 °F 65% 30.27 in 10.0 mi SE 6.9 mph - N/A   Clear
7:55 PM 41.0 °F 36.4 °F 30.2 °F 65% 30.27 in 10.0 mi SE 6.9 mph - N/A   Clear
8:15 PM 39.2 °F 34.2 °F 30.2 °F 70% 30.27 in 10.0 mi SE 6.9 mph - N/A   Clear
8:35 PM 39.2 °F 34.2 °F 30.2 °F 70% 30.26 in 10.0 mi SE 6.9 mph - N/A   Clear
8:55 PM 39.2 °F 34.2 °F 30.2 °F 70% 30.26 in 10.0 mi SE 6.9 mph - N/A   Clear
9:15 PM 39.2 °F 34.2 °F 30.2 °F 70% 30.25 in 10.0 mi SE 6.9 mph - N/A   Clear
9:35 PM 39.2 °F 33.6 °F 30.2 °F 70% 30.24 in 10.0 mi SE 8.1 mph - N/A   Clear
9:55 PM 37.4 °F 32.1 °F 30.2 °F 75% 30.24 in 10.0 mi SE 6.9 mph - N/A   Clear
10:15 PM 37.4 °F 31.4 °F 30.2 °F 75% 30.23 in 10.0 mi SE 8.1 mph - N/A   Clear
10:35 PM 39.2 °F 33.6 °F 30.2 °F 70% 30.23 in 10.0 mi SSE 8.1 mph - N/A   Clear
10:55 PM 41.0 °F 35.2 °F 32.0 °F 70% 30.23 in 10.0 mi SSE 9.2 mph - N/A   Clear
11:15 PM 41.0 °F 35.2 °F 32.0 °F 70% 30.22 in 10.0 mi SE 9.2 mph - N/A   Clear
11:35 PM 41.0 °F 35.2 °F 32.0 °F 70% 30.22 in 10.0 mi SSE 9.2 mph - N/A   Clear